Location: Newark
(52.3500°N, 175.9667°E)
Time: 23:00:12
(UTC+00:00)

Altair - Pass Details

Date: 25 April 2021
Orbit: 1501 x 1683 km, 47.2° (Epoch: 06 May)

Event Time Altitude Azimuth Distance (km) Brightness Sun altitude
Rises 16:41:40 0° 224° (SW) 4,903 - -2.8°
Exits shadow 16:41:49 - 224° (SW) 4,857 9.5 -2.8°
Reaches altitude 10° 16:45:01 10° 219° (SW) 3,901 9.1 -2.4°
Maximum altitude 16:54:15 45° 151° (SSE) 2,100 8.3 -1.1°
Drops below altitude 10° 17:03:11 10° 83° (E) 3,782 11.3 0.2°
Sets 17:06:22 0° 78° (ENE) 4,743 12.6 0.6°
